This is the latest recevied weather packets stored in our database for station/object KB7STN. If no packets are shown the sender has not sent any weather packets the latest 10 day(s).
| Time | Temp. | Humidity | Pressure | Rain* | Wind** | Luminosity | Snow |
|---|---|---|---|---|---|---|---|
| 1788048397 | 18.89° C | 80% | 1020.1 hPa | 0 mm | - | - | - |
| 1788048097 | 18.33° C | 81% | 1020.1 hPa | 0 mm | - | - | - |
| 1788047797 | 18.33° C | 82% | 1020.1 hPa | 0 mm | - | - | - |
| 1788047497 | 18.33° C | 82% | 1020.2 hPa | 0.25 mm | - | - | - |
| 1788047197 | 18.33° C | 82% | 1020.4 hPa | 0.76 mm | - | - | - |
| 1788046897 | 18.33° C | 82% | 1020.8 hPa | 0.76 mm | - | - | - |
| 1788046597 | 18.33° C | 82% | 1020.8 hPa | 0.76 mm | - | - | - |
| 1788046297 | 18.33° C | 82% | 1020.7 hPa | 0.76 mm | - | - | - |
| 1788045997 | 18.33° C | 81% | 1020.7 hPa | 1.02 mm | - | - | - |
| 1788045697 | 18.33° C | 80% | 1020.6 hPa | 1.02 mm | - | - | - |
| 1788045397 | 18.89° C | 80% | 1020.4 hPa | 1.02 mm | - | - | - |
| 1788045097 | 18.89° C | 78% | 1020.2 hPa | 1.02 mm | - | - | - |
| 1788044797 | 18.89° C | 79% | 1020.3 hPa | 1.02 mm | - | - | - |
| 1788044497 | 19.44° C | 77% | 1020.3 hPa | 1.02 mm | - | - | - |
| 1788044197 | 20° C | 75% | 1020.1 hPa | 1.02 mm | - | - | - |
| 1788043897 | 20° C | 72% | 1020.9 hPa | 0.76 mm | - | - | - |
| 1788043597 | 20.56° C | 69% | 1021.1 hPa | 0.25 mm | - | - | - |
| 1788043297 | 20.56° C | 63% | 1020.8 hPa | 0.25 mm | - | - | - |
| 1788042997 | 21.11° C | 63% | 1020.5 hPa | 0.25 mm | - | - | - |
| 1788042697 | 21.67° C | 61% | 1020.2 hPa | 0.25 mm | - | - | - |
| 1788042397 | 21.67° C | 56% | 1020 hPa | 0 mm | - | - | - |
| 1788042097 | 22.22° C | 55% | 1020.3 hPa | 0 mm | - | - | - |
| 1788041797 | 22.22° C | 53% | 1020.8 hPa | 0 mm | - | - | - |
| 1788041497 | 22.22° C | 52% | 1020.9 hPa | 0 mm | - | - | - |
| 1788041197 | 22.22° C | 50% | 1020.8 hPa | 0 mm | - | - | - |
* Rain latest hour (hover to see other rain measurements)
** Current wind speed in m/s (hover to see current wind gust speed)